カタリナ彗星

P/2005 JY126 ( Catalina )

English version
Home page
Total 6,336 html files since Dec. 4, 1995
Updated on February 11, 2007

---------------------------------------------------------------------

・ プロフィール

発見日 2005年5月12日
発見光度 17.4等
発見者 Catalina Sky Survey

・ 軌道要素

Epoch 2006 Mar. 6.0 TT = JDT 2453800.5
T 2006 Feb. 21.3281 TT                                  MPC
q   2.125986             (2000.0)            P               Q
n   0.1355974      Peri.  117.5883      +0.7991886      +0.5787513
a   3.752337       Node   207.9860      -0.5963070      +0.7973526
e   0.433423       Incl.   20.2360      +0.0756013      +0.1711017
P   7.27
From 137 observations 2005 Apr. 17-2006 Sept. 4, mean residual 0".6.

・ 星図

・ 光度変化

        m1 = 11.8 + 5 logΔ + 10.0 log r(t + 70)

---------------------------------------------------------------------

軌道要素はM.P.E.C. 2006-R29に掲載されたものです。
星図は StellaNavigator Ver.2.0 for Windows (アストロアーツ 編著 / アスキー出版局刊) で作成したものです。
光度グラフはComet for Windowsで作成したものです。

---------------------------------------------------------------------

Copyright(C) 1995-2008 Seiichi Yoshida (comet@aerith.net). All rights reserved.